{"data":{"norad_id":44819,"intl_designator":"2019-082A","name":"GAOFEN-12 01","alt_names":[],"object_type":"PAYLOAD","status":"ACTIVE","operator":null,"country":"PRC","launch_date":"2019-11-27","launch_site_code":"TAISC","launch_vehicle":null,"mission":null,"orbit_class":"UNKNOWN","rcs_meters":null,"size_class":null,"mass_kg":null,"dimensions":null,"purposes":["earth_obs"],"wikipedia_slug":null,"has_3d_model":false,"image_url":null,"decayed_at":null,"tle_current":{"epoch":"2026-09-20T05:47:33.656928Z","epoch_age_seconds":40652,"freshness":"FRESH","line1":"1 44819U 19082A   26263.24136177  .00000225  00000+0  36034-4 0  9994","line2":"2 44819  97.8151 267.1361 0002483  88.3180 271.8317 14.80521174368155","mean_motion":14.80521174,"eccentricity":0.0002483,"inclination_deg":97.8151,"raan_deg":267.1361,"arg_perigee_deg":88.318,"mean_anomaly_deg":271.8317,"bstar":3.6034e-5,"rev_number":36815,"period_min":97.263046641169,"perigee_km":625.93998008115,"apogee_km":629.41906856713,"semimajor_km":7005.8165243241,"source":"CELESTRAK","updated_at":"2026-09-20T09:00:33.975565Z"}}}